Lid_Strength_Index
10 9 9 8 9 9 9 9 12 12 12 10 9 8 7 5 6 6 7 7 5 5 4 4 3 3 2 2 2 2 2 2 2 2 1 1 1 1 1 1 1 1 1 1
11 8 8 9 8 8 8 8 10 10 11 8 7 6 6 6 6 6 6 5 5 4 4 4 4 3 3 2 2 2 2 2 2 2 2 1 1 1 1 1 1 1 1 1
13 9 9 12 9 8 9 8 9 12 9 8 8 6 6 6 7 6 6 5 5 4 4 4 3 3 3 2 2 2 2 2 2 2 2 2 1 1 1 1 1 1 1 2
13 13 17 10 7 7 8 7 7 8 7 7 7 6 5 5 6 6 5 5 5 4 4 3 3 2 2 2 2 2 2 2 2 2 2 1 1 2 1 1 1 1 2 1
14 16 13 10 8 8 9 9 6 8 7 7 6 6 7 5 5 5 5 4 4 3 3 3 3 2 4 5 4 2 2 3 2 2 2 2 2 2 1 2 2 2 1 3
12 15 17 11 7 6 6 12 7 7 7 7 7 11 9 8 5 5 4 4 4 3 3 3 3 4 4 3 3 3 3 2 2 1 2 2 2 2 2 1 2 1 1 3
11 13 12 9 7 6 13 13 7 6 6 7 8 7 6 5 5 4 4 4 3 3 3 3 3 3 4 3 3 2 2 2 3 3 1 1 2 2 2 1 2 3 3 3
11 13 16 7 8 12 9 7 6 7 6 7 6 6 5 5 5 4 4 4 3 3 3 2 3 3 3 3 2 2 3 4 2 2 2 1 2 2 4 6 6 5 6 6
13 13 9 7 8 6 6 7 8 6 6 6 6 6 5 5 5 4 4 4 4 4 3 3 3 3 4 3 3 3 4 2 2 3 2 2 2 4 6 7 7 7 7 8
11 9 8 7 5 5 5 6 5 6 5 5 6 5 5 5 5 4 4 4 4 4 4 4 3 3 3 3 3 2 3 4 3 3 2 3 4 4 6 7 8 8 8 9
10 9 8 6 6 5 5 5 6 4 4 5 5 5 5 5 5 4 4 3 3 3 3 4 4 4 4 3 2 3 4 5 5 4 4 3 5 5 6 7 7 8 8 9
12 8 8 8 5 4 5 5 4 4 5 4 4 5 4 5 4 4 4 3 3 3 4 4 4 4 3 3 4 4 4 6 7 5 6 6 6 7 6 7 8 8 8 8
8 6 6 5 5 5 4 4 4 4 4 4 4 4 4 4 4 4 3 3 3 4 3 4 5 4 3 4 6 7 8 6 7 7 7 7 7 7 7 8 7 8 8 8
5 6 7 6 6 4 4 3 4 3 4 4 3 3 4 4 4 4 4 3 3 4 4 5 5 5 5 6 6 6 9 6 8 7 8 7 8 7 7 7 8 8 8 8
5 4 5 4 4 3 3 4 4 4 4 4 3 4 4 4 4 4 3 3 3 4 5 5 6 6 6 5 7 9 9 9 8 7 8 7 8 7 7 7 7 6 7 7
5 5 5 5 4 4 4 4 5 5 4 4 4 4 4 3 3 3 3 3 4 6 6 6 7 6 6 6 6 8 9 6 7 8 8 9 8 8 8 7 7 5 5 5
6 6 6 5 5 5 5 6 5 5 4 4 4 4 3 3 4 4 4 3 4 5 5 6 7 7 7 6 6 7 8 8 6 8 8 8 8 8 7 6 6 5 5 4
4 4 4 4 5 5 7 7 7 5 4 4 3 3 4 4 4 4 5 6 5 5 5 6 6 6 6 6 6 5 6 7 7 7 7 7 7 6 6 5 5 5 5 4
4 4 4 4 4 5 5 6 4 4 3 3 4 4 4 4 4 5 5 6 6 7 6 7 5 6 7 5 6 6 6 5 6 5 5 5 5 4 4 4 4 4 3 3
3 4 4 4 3 4 5 5 3 4 4 4 4 5 5 5 5 5 4 6 7 6 6 7 7 6 6 6 6 6 5 4 4 4 4 4 4 4 3 3 3 3 2 3
4 4 4 4 4 3 3 3 3 4 4 4 5 5 5 4 5 5 6 7 7 5 7 6 6 5 5 4 3 4 4 3 3 2 3 3 3 3 3 3 3 2 2 3
4 4 4 4 4 4 3 3 3 4 4 4 4 5 5 5 5 6 5 6 5 5 5 7 8 6 4 1 3 3 3 3 2 2 3 2 3 3 3 2 2 3 3 3
4 4 4 4 4 4 3 3 3 3 3 3 4 4 5 4 5 6 6 5 4 6 6 5 3 1 0 4 3 3 2 2 2 3 3 2 3 3 3 3 2 3 3 3
4 4 4 3 3 4 4 4 3 3 3 3 3 4 4 5 5 5 4 4 4 3 4 3 2 1 1 4 3 3 2 2 2 2 1 4 3 2 3 3 3 2 1 2
4 4 3 4 4 4 3 3 3 3 3 3 4 4 4 4 4 4 3 2 3 3 3 2 1 1 3 3 2 2 2 2 2 1 3 3 3 3 2 2 2 1 1 4
4 4 3 3 3 3 3 3 4 4 4 4 4 3 3 3 2 1 2 1 2 3 3 2 3 3 3 2 2 2 1 1 1 2 2 2 2 1 1 2 2 1 5 6
3 4 3 3 3 2 2 3 3 3 3 3 4 3 2 2 2 2 2 2 2 3 3 3 2 2 1 1 1 1 2 1 3 2 1 2 1 1 2 2 3 5 5 5